Voltar ao catálogo

YAOGAN-32 2A

AtivoMilitarSSO
NORAD 49383·PAYLOAD·🇨🇳 China

Lançado Nov 3, 2021 de Jiuquan Satellite Launch Center

Loading…

Próximas Passagens (próximas 24 horas)

TLE

AtualizadoSource: Space-Track

Época: Sep 14, 2026, 14:52 UTC

1 49383U 21099A   26257.61996208  .00000530  00000-0  10966-3 0  9994
2 49383  98.2597  31.6104 0000471  26.0364 334.0862 14.64314062259459

Acompanhe YAOGAN-32 2A em tempo real com AllMySat

Download on the App Store